DW9332 Weather Reports


time (UTC)temp
F
wind
direction
speed
knots
gust
knots
rain 1hr
in
rain 24hr
in
rain mn
in
humidity
%
barometer
mb
20260504194557 67 192 4.3 14.8 0.00 0.00 0.00 50 1010.2
20260504193103 68 174 3.5 15.6 0.00 0.00 0.00 48 1010.3
20260504191550 69 178 2.6 9.6 0.00 0.00 0.00 48 1010.2
20260504190054 68 240 5.2 13.9 0.00 0.00 0.00 49 1010.4
20260504184547 69 181 4.3 10.4 0.00 0.00 0.00 45 1010.5
20260504183056 68 211 2.6 10.4 0.00 0.00 0.00 47 1010.6
20260504181543 69 176 2.6 8.7 0.00 0.00 0.00 47 1010.9
20260504180112 68 215 4.3 13.0 0.00 0.00 0.00 45 1011.0
20260504174541 69 179 3.5 14.8 0.00 0.00 0.00 44 1011.2
20260504173040 67 104 5.2 10.4 0.00 0.00 0.00 45 1011.1
20260504171545 67 179 5.2 14.8 0.00 0.00 0.00 44 1011.3
20260504081512 50 195 1.7 6.1 0.00 0.00 0.00 57 1012.9
20260504050002 45 207 1.7 4.3 0.00 0.00 0.00 70 1012.3
20260504044505 45 188 0.9 3.5 0.00 0.00 0.00 69 1012.2
20260504043001 45 188 0.9 3.5 0.00 0.00 0.00 68 1012.2
20260504041501 45 192 1.7 3.5 0.00 0.00 0.00 68 1012.2
20260504040003 45 190 0.9 2.6 0.00 0.00 0.00 67 1012.2
20260504034617 46 191 0.9 3.5 0.00 0.00 0.00 65 1012.2
20260504033105 46 196 0.9 2.6 0.00 0.00 0.00 65 1012.0
20260504031604 46 197 0.9 2.6 0.00 0.00 0.00 64 1012.1
20260504030058 48 186 0.9 3.5 0.00 0.00 0.00 58 1012.1
20260504024559 46 196 1.7 4.3 0.00 0.00 0.00 64 1012.0
20260504023057 45 283 0.9 1.7 0.00 0.00 0.00 69 1012.1
20260504021601 46 283 0.0 2.6 0.00 0.00 0.00 67 1012.0
20260504020112 46 283 0.9 1.7 0.00 0.00 0.00 66 1012.0
20260504014602 47 283 0.0 2.6 0.00 0.00 0.00 63 1011.9
20260504013104 47 283 0.9 1.7 0.00 0.00 0.00 62 1011.8
20260504011554 48 283 0.9 1.7 0.00 0.00 0.00 60 1011.6
20260504010051 50 283 0.0 1.7 0.00 0.00 0.00 56 1011.4
20260504004550 51 283 0.9 2.6 0.00 0.00 0.00 53 1011.2
20260504003049 52 283 0.9 1.7 0.00 0.00 0.00 49 1011.0
20260504001551 54 283 0.9 1.7 0.00 0.00 0.00 45 1010.7
20260504000052 55 283 0.9 1.7 0.00 0.00 0.00 40 1010.5
20260503234548 56 283 0.9 3.5 0.00 0.00 0.00 37 1010.3
20260503233048 57 280 0.0 2.6 0.00 0.00 0.00 34 1010.3
20260503231547 58 279 0.9 5.2 0.00 0.00 0.00 34 1010.1
20260503224547 59 360 2.6 9.6 0.00 0.00 0.00 31 1010.1
20260503223046 59 319 2.6 9.6 0.00 0.00 0.00 34 1009.9
20260503221544 58 313 4.3 9.6 0.00 0.00 0.00 36 1009.8
20260503220045 59 349 5.2 9.6 0.00 0.00 0.00 36 1009.9
20260503214544 59 342 4.3 8.7 0.00 0.00 0.00 36 1009.8
20260503213041 58 315 3.5 8.7 0.00 0.00 0.00 36 1009.7
20260503211603 58 327 5.2 12.2 0.00 0.00 0.00 42 1009.8
20260503210043 58 321 6.1 14.8 0.00 0.00 0.00 43 1009.7
20260503204542 57 9 6.1 9.6 0.00 0.00 0.00 43 1009.6
20260503203047 57 321 7.0 13.0 0.00 0.00 0.00 40 1009.7
20260503201538 57 314 5.2 13.9 0.00 0.00 0.00 38 1009.7
20260503200052 56 279 3.5 13.9 0.00 0.00 0.00 42 1009.9